User: anonymous   Login
Location: Unspecified
(0.0000°N, 0.0000°E)
Time: 04:51:35
(UTC+00:00)
Language:

IBEX - Orbit

View from above orbital plane
View from above orbital plane
View from above satellite
View from above satellite

Ground track
Ground track

The orbit data is extracted from the following two-line orbital elements,

1 33401U 08051A   14305.55872538 -.00000824  00000-0  00000+0 0  1166
2 33401 004.8054 161.2297 4736132 336.1166 005.5773 00.10042927  2581
Epoch (UTC): 01 November 2014 13:24:33
Eccentricity: 0.4736132
inclination: 4.8054°
perigee height: 96533 km
apogee height: 281720 km
right ascension of ascending node: 161.2297°
argument of perigee: 336.1166°
revolutions per day: 0.10042927
mean anomaly at epoch: 5.5773°
orbit number at epoch: 258

The dashed part of the orbit path shows where the satellite is in the earth's shadow,  

DLR